Regional Weather Roundup
Issued by NWS

Home | Current Version | Previous Version | Graphics & Text | Print | Product List | Glossary On
Versions: 1 2 3 4 5 6 7 8 9 10 11 12 13 14 15 16 17 18 19 20 21 22 23 24 25 26 27 28 29 30 31 32 33 34 35 36 37 38 39 40 41 42 43 44 45 46 47
000
ASUS45 KBOU 222207
RWRCO

WEATHER ROUNDUP FOR COLORADO
NATIONAL WEATHER SERVICE DENVER/BOULDER CO
400 PM MDT MON SEP 22 2014

NOTE: "FAIR" INDICATES FEW OR NO CLOUDS BELOW 12000 FEET WITH NO
SIGNIFICANT WEATHER AND/OR OBSTRUCTIONS TO VISIBILITY.

COZ001>005-013-030-031-222300-
...NORTHWEST COLORADO...

CITY           SKY/WX    TMP DP  RH WIND       PRES   REMARKS
CRAIG          PTSUNNY   72  45  37 W18G29    30.20F
HAYDEN         PTSUNNY   66  45  45 W12       30.21F
MEEKER         PTSUNNY   68  46  45 W12       30.23F
MOUNT WERNER   NOT AVBL
STEAMBOAT SPGS CLOUDY    63  47  55 S5        30.24S
WALDEN         PTSUNNY   59  34  38 SW17G25   30.30S
$$

COZ006>008-011-222300-
...WEST CENTRAL VALLEYS...

CITY           SKY/WX    TMP DP  RH WIND       PRES   REMARKS
GRAND JUNCTION SUNNY     76  56  49 W7        30.13F
MONTROSE       PTSUNNY   74  52  46 N6        30.21F
EAGLE          MOSUNNY   64  54  68 CALM      30.27F
RIFLE          MOSUNNY   72  53  51 S6        30.17F
DELTA          RAIN      77  52  42 W14       30.17F
NUCLA          PTSUNNY   72  50  46 NW10      30.25F
$$

COZ017>023-064>068-222300-
...SOUTHWEST COLORADO...

CITY           SKY/WX    TMP DP  RH WIND       PRES   REMARKS
DURANGO          N/A     72  54  53 MISG      30.26F
CORTEZ         SUNNY     77  50  38 W12G22    30.23F
PAGOSA SPRINGS MOSUNNY   69  47  46 SW6       30.33F
TELLURIDE      NOT AVBL
WOLF CREEK PAS CLOUDY    45  45 100 SW21G30   30.58S FOG
$$

COZ009-010-012-014-032>034-037-058>063-222300-
...CENTRAL COLORADO...

CITY           SKY/WX    TMP DP  RH WIND       PRES   REMARKS
ASPEN          MOSUNNY   59  46  62 CALM      30.32F
BUENA VISTA    CLOUDY    67  40  37 W13G20    30.30R
COPPER MTN     DRIZZLE   45  37  76 W22G29    30.56R
BERTHOUD PASS  CLOUDY    39  37  93 W23G36    30.57S
COTTONWOOD PAS MOSUNNY   61  34  36 W16G37    30.41S
GUNNISON       MOSUNNY   64  48  55 S3        30.33S
KREMMLING      PTSUNNY   70  45  40 S15       30.28F
LEADVILLE      MOSUNNY   54  39  57 NW23G29   30.41R
MONARCH PASS   PTSUNNY   43  41  93 W31G39    30.65F FOG
SALIDA         PTSUNNY   65  44  46 W15G32    30.37R
SUNLIGHT       MOSUNNY   54  50  87 CALM      30.50S
WILKERSON PASS NOT AVBL
$$

COZ069>075-222300-
...SAN LUIS VALLEY/SANGRE DE CRISTO MOUNTAINS...

CITY           SKY/WX    TMP DP  RH WIND       PRES   REMARKS
ALAMOSA        CLOUDY    71  46  40 S12       30.29S
LA VETA PASS   PTSUNNY   63  43  48 S7G18     30.46S
SAGUACHE       PTSUNNY   64  46  52 NW6       30.32F
$$

COZ035-036-038>040-222300-
...NORTHERN COLORADO FRONT RANGE...

CITY           SKY/WX    TMP DP  RH WIND       PRES   REMARKS
DENVER INTL AP PTSUNNY   76  51  41 NW12      30.11F
DMNS CITY PARK   N/A     76  46  34 NE9G15    30.10F
AURORA         PTSUNNY   68  52  55 N10       30.13F
FRONT RANGE AP NOT AVBL
ERIE MUNI ARPT NOT AVBL
BOULDER MUN AP PTSUNNY   79  39  24 SW20      30.08F
CENTENNIAL     PTSUNNY   72  53  51 N17       30.14S THUNDER
BROOMFIELD     PTSUNNY   77  43  29 N6        30.12F
FORT COLLINS   PTSUNNY   75  54  46 SE3       30.09F
LONGMONT       PTSUNNY   82  41  22 W12       30.09F
$$

COZ041-046-047-076>085-087-088-222300-
...PIKES PEAK/PALMER DIVIDE AND SOUTHERN FOOTHILLS...

CITY           SKY/WX    TMP DP  RH WIND       PRES   REMARKS
COLO. SPRINGS  PTSUNNY   73  51  46 S12       30.19F
A. F. ACADEMY  MOSUNNY   70  51  52 S14       30.19S
ELLICOTT       NOT AVBL
FALCON         PTSUNNY   68  49  51 S14G21    30.23S
FORT CARSON    PTSUNNY   73  52  47 S6        30.16F
LIMON          MOSUNNY   76  49  38 S16       30.12F
MONUMENT HILL  PTSUNNY   70  45  40 S8        30.20S
TRINIDAD       CLOUDY    71  56  58 SW22G30   30.20R
$$

COZ042>045-048>051-090-091-222300-
...NORTHEAST COLORADO...

CITY           SKY/WX    TMP DP  RH WIND       PRES   REMARKS
GREELEY ARPT   PTSUNNY   77  50  38 CALM      30.09F
AKRON          PTSUNNY   77  55  46 S8        30.08F
BURLINGTON     CLOUDY    73  52  47 S20G30    30.12F
WRAY           CLOUDY    78  52  40 SE17G24   30.08F
STERLING       MOSUNNY   82  59  44 SW13      30.04F THUNDER
HOLYOKE        LGT RAIN  73  55  53 SE12G21   30.09F
FORT MORGAN    MOSUNNY   78  49  36 CALM      30.08F
$$

COZ086-089-092>099-222300-
...SOUTHEAST COLORADO...

CITY           SKY/WX    TMP DP  RH WIND       PRES   REMARKS
PUEBLO         PTSUNNY   77  53  43 S7        30.09F
LA JUNTA       PTSUNNY   72  63  73 CALM      30.08F
LAMAR          CLOUDY    76  57  51 S25G37    30.09F
SPRINGFIELD      N/A     74  57  55 S24G38    30.18F
$$



USA.gov is the U.S. government's official web portal to all federal, state and local government web resources and services.